Location: Unspecified
(56.5167°N, 0.0000°E)
Time: 03:34:45
(UTC+02:00)

CZ-3 Stage 3 - Visible Passes

Search period start: 26 September 2023 00:00
Search period end: 06 October 2023 00:00
Orbit: 416 x 34716 km, 31.1° (Epoch: 25 September)

Date Brightness Start Highest point End Pass type
(mag) Time Alt. Az. Time Alt. Az. Time Alt. Az.
26 Sep 6.1 06:23:24 10° W 07:07:22 23° SW 07:16:25 10° S visible
26 Sep 6.9 21:05:46 10° S 03:19:08 41° S 03:40:42 10° ESE visible
27 Sep 7.7 19:39:34 10° SE 23:08:31 30° SE 23:56:51 10° E visible
29 Sep 6.1 05:53:50 10° W 06:48:36 24° SW 06:58:11 10° S visible
29 Sep 6.9 20:42:21 10° SSE 02:59:18 42° S 03:22:13 10° ESE visible
30 Sep 7.7 19:21:58 10° SE 22:48:07 30° SE 23:37:55 10° E visible
02 Oct 6.2 05:19:36 10° W 06:29:42 26° SW 06:39:52 10° S visible
02 Oct 6.9 20:19:32 10° SSE 02:39:17 43° S 03:03:38 10° ESE visible
03 Oct 7.7 19:04:36 10° SE 22:27:38 30° SE 23:18:52 10° E visible
05 Oct 6.2 04:34:53 10° W 06:10:42 27° SW 06:21:28 10° S visible
